Regional Weather Roundup
Issued by NWS Newport/Morehead, NC

Current Version | Previous Version | Text Only | Print | Product List | Glossary On
Versions: 1 2 3 4 5 6 7 8 9 10 11 12 13 14 15 16 17 18 19 20 21 22 23 24 25 26 27 28 29 30 31 32 33 34 35 36 37 38 39 40 41 42 43 44 45 46 47 48 49 50
000
ASUS42 KMHX 041313
RWRMHX
WEATHER ROUNDUP FOR EASTERN NORTH CAROLINA
NATIONAL WEATHER SERVICE NEWPORT/MOREHEAD CITY NC
900 AM EDT TUE AUG 04 2015

NOTE: "FAIR" INDICATES FEW OR NO CLOUDS BELOW 12,000 FEET
WITH NO SIGNIFICANT WEATHER AND/OR OBSTRUCTIONS TO VISIBILITY

NCZ015>017-031-032-045>047-102-103-041400-
NORTH COAST

CITY           SKY/WX    TMP DP  RH WIND       PRES   REMARKS
EDENTON          N/A     80  77  89 SW7       30.02R
ELIZABETH CITY PTSUNNY   82  76  81 SW15      30.01R
KITTY HAWK     MOSUNNY   84  78  83 SW6       30.01S
MANTEO         PTSUNNY   82  78  86 SW12      30.03R

$$

NCZ045>047-081-094-103-104-041400-
CENTRAL COAST

CITY           SKY/WX    TMP DP  RH WIND       PRES   REMARKS
FRISCO         PTSUNNY   81  76  84 SW8       30.04R
SWANQUARTER      N/A     84 N/A N/A S13       30.00R

$$

NCZ095-097-098-100-101-041400-
SOUTHERN COAST

CITY           SKY/WX    TMP DP  RH WIND       PRES   REMARKS
BEAUFORT       CLOUDY    82  78  88 S7        30.02F
CEDAR ISLAND     N/A     82 N/A N/A S7        30.06S
JACKSONVILLE   LGT RAIN  81  75  82 S10       30.01S
PINEY ISLAND   PTSUNNY  N/A N/A N/A S5        30.02S
WILMINGTON     CLOUDY    80  77  90 SE6       29.98S


$$

NCZ011>013-027>030-043-044-078>080-089-090>093-098-041400-
COASTAL PLAIN

CITY           SKY/WX    TMP DP  RH WIND       PRES   REMARKS
AHOSKIE        MOSUNNY   80  75  85 S5        30.01R
CLINTON        MOSUNNY   81  76  85 CALM      30.00F
ELIZABETHTOWN  PTSUNNY   78  76  94 CALM      30.00R
GOLDSBORO      MOSUNNY   82  77  86 MISG      29.98S
GREENVILLE     MOSUNNY   81  77  89 SW7       30.03S
HAVELOCK       CLOUDY    81  75  82 CALM      30.02F
KENANSVILLE    PTSUNNY  N/A N/A N/A CALM      30.01F
KINSTON        MOSUNNY   82  75  78 S8        30.01S
NEW BERN       PTSUNNY   81  74  79 VRB3      30.02F
RICHLANDS      PTSUNNY   81  72  74 S3        30.01S
ROCKY MOUNT    MOSUNNY   81  75  82 S8        30.01S
WASHINGTON     MOSUNNY   81  77  86 S5        30.03R
WHITEVILLE     HVY RAIN  77  75  94 NE9       29.98R

$$

AMZ130-135-150-152-154-156-158-170-250-252-270-ANZ085-086-088-633-658-670-041400-
MARINE OBSERVATIONS

STATION/POSITION TIME  TEMP    WIND        PRES    WAVE   SWELL
                       AIR SEA DIR/SP/G            HT/PER HT/PER
                 (UTC) (F)     (DEG/KT/KT) (MB)    (FT/S) (FT/S)
CHESAPEAKE LIGHT 1300   78     230/ 15/ 15 1015.9
64 E VA BEACH    1250   81 81  220/ 12/ 16 1015.5    5/ 7   3/ 7
DUCK             1200   81 62  220/ 10/ 13 1015.5
2 E DUCK         1211      70                N/A     3/ 6   2/11
OREGON INLET     1200   81 80  210/ 11/ 15 1016.2
13E OREGON INLT  1300      81                N/A     3/ 5
HATTERAS CG      1200   80 78  200/  5/  8 1016.4
DIAMOND BUOY     1250   83 84  190/ 17/ 21 1017.0    4/ 7   2/ 7
CAPE LOOKOUT     1300   81     170/  9/ 10 1016.2
BEAUFORT LAB     1200   81 79  190/ 11/ 13 1016.0
30 SE NEW RVR IN NOT AVBL
27 SE WRIGHTSVLE 1200   78 81  200/ 21/ 25   N/A
5 SE WRIGHTSVLE  1208   81 82  160/ 16/ 19 1014.8
225 S CAPE HAT   1250   82 81  190/ 14/ 16 1019.0    5/ 7   3/ 7
41 SE CHARLESTON 1250   79 83  230/ 17/ 21 1012.9    7/ 6   2/14

$$


USA.gov is the U.S. government's official web portal to all federal, state and local government web resources and services.